Weather Roundup
Issued by NWS Chicago, IL

Home | Current Version | Previous Version | Text Only | Print | Product List | Glossary On
Versions: 1 2 3 4 5 6 7 8 9 10 11 12 13 14 15 16 17 18 19 20 21 22 23 24 25 26 27 28 29 30 31 32 33 34 35 36 37 38 39 40 41 42 43 44 45 46 47 48 49 50
000
NZUS59 KLOT 230210
HRRLOT

CHICAGO AREA WEATHER ROUNDUP
NATIONAL WEATHER SERVICE CHICAGO/ROMEOVILLE IL
900 PM CDT WED OCT 22 2014

NOTE: "FAIR" INDICATES FEW OR NO CLOUDS BELOW 12,000 FEET WITH NO
SIGNIFICANT WEATHER AND/OR OBSTRUCTIONS TO VISIBILITY.

* THESE STATIONS ARE NOT UNDER NWS QUALITY CONTROL. THEY ALSO MAY NOT
  REPORT WEATHER SUCH AS PRECIPITATION OR FOG.

ILZ005-006-012>014-019>023-230300-
NORTHEAST ILLINOIS

CITY           SKY/WX    TMP DP  RH WIND       PRES   REMARKS
OHARE          CLEAR     42  36  79 SE5       30.26S
MIDWAY         CLEAR     48  37  65 E5        30.27S
AURORA         CLEAR     42  34  73 E6        30.27R
LANSING*       CLEAR     39  35  87 CALM      30.28R
JOLIET*        CLEAR     43  35  73 CALM      30.27R
WAUKEGAN       CLEAR     35  34  96 CALM      30.27R
DUPAGE AIRPORT CLEAR     43  36  76 CALM      30.26S
WHEELING       CLEAR     42  36  79 CALM      30.29S
KANKAKEE*      CLEAR     41  36  84 E6        30.27S
MORRIS*        CLEAR     42  37  82 E5        30.26R
LEWIS AIRPORT* CLEAR     42  36  77 E5        30.27R
NORTHERLY IS     N/A     49  38  65 SE7         N/A
$$

WIZ051-052-058>065-066-070>072-230300-
SOUTHEAST WISCONSIN

CITY           SKY/WX    TMP DP  RH WIND       PRES   REMARKS
MILWAUKEE      PTCLDY    43  36  76 SE5       30.27S
KENOSHA*       CLEAR     38  35  89 SE6       30.27S
RACINE*        CLEAR     42  35  76 SE5       30.29S
BURLINGTON     CLEAR     35  34  96 CALM      30.27S
WAUKESHA       CLEAR     39  36  87 SE5       30.27S
WEST BEND      CLEAR     37  34  87 CALM      30.26F
$$

INZ001>003-010>013-019-020-230300-
NORTHWEST INDIANA

CITY           SKY/WX    TMP DP  RH WIND       PRES   REMARKS
GARY*          NOT AVBL
MICHIGAN CITY* NOT AVBL
RENSSELAER*    NOT AVBL
VALPARAISO     CLEAR     37  35  92 NE5       30.28S
$$

LMZ740>746-230300-
SOUTHERN LAKE MICHIGAN

STATION/POSITION TIME  SKY/WX   TEMP WIND        PRES    VSBY
                                AIR  DIR/SP/G
                 (UTC)          (F)  (DEG/KT/KT) (MB)    (MI)
HARRISON CRIB    0100            49  110/  7/ 10   N/A
BURNHAM HARBOR   0200            49  120/  5/  7   N/A
CALUMET HARBOR   0200            50   90/  4/  6 1023.8R
BURNS HARBOR     NOT AVBL
MICHIGAN CITY    0200            46   60/  8/  9   N/A
$$

ABBREVIATIONS USED IN REMARKS
   TC - TEMPERATURE IN CELSIUS
  WCI - WIND CHILL INDEX
   HX - HEAT INDEX
  VSB - VISIBILITY
$$



USA.gov is the U.S. government's official web portal to all federal, state and local government web resources and services.